GFSNE_850_dewp_030.txt.gz
Dewpoint
-3 -4 -4 -4 -3 -4 -5 -5 -6 -5 -8 -9 -10 -11 -11 -12 -12 -12 -11 -11 -11 -10 -10 -11 -12 -10 -8 -8 -7 -7 -5 -4 -8 -10 -13 -13 -9 -1
-4 -3 -3 -3 -4 -5 -6 -6 -7 -9 -9 -10 -10 -11 -12 -12 -12 -12 -11 -11 -12 -12 -13 -12 -10 -9 -9 -9 -8 -8 -7 -7 -10 -10 -11 -13 -13 -8
-6 -4 -4 -4 -5 -5 -7 -8 -10 -10 -10 -11 -12 -12 -11 -11 -13 -12 -12 -13 -14 -11 -10 -11 -10 -9 -9 -9 -9 -9 -11 -12 -12 -12 -11 -12 -14 -13
-4 -4 -5 -6 -7 -8 -9 -11 -11 -11 -11 -11 -10 -10 -10 -12 -11 -11 -11 -11 -10 -11 -11 -10 -11 -10 -10 -10 -9 -9 -8 -10 -12 -13 -14 -13 -14 -15
-5 -6 -7 -7 -9 -10 -10 -10 -13 -12 -11 -11 -11 -12 -12 -12 -12 -12 -12 -11 -10 -12 -11 -11 -12 -11 -9 -8 -7 -8 -10 -12 -14 -14 -15 -15 -15 -15
-7 -7 -8 -10 -11 -11 -12 -13 -13 -12 -12 -12 -12 -13 -13 -12 -12 -12 -10 -11 -11 -12 -12 -13 -12 -11 -9 -9 -9 -10 -11 -12 -13 -14 -15 -17 -17 -15
-9 -10 -11 -11 -12 -12 -12 -12 -11 -11 -12 -13 -13 -13 -12 -12 -12 -10 -10 -10 -13 -12 -11 -11 -11 -10 -10 -10 -7 -9 -8 -9 -13 -11 -11 -14 -14 -10
-10 -10 -10 -11 -12 -12 -11 -11 -11 -12 -13 -12 -12 -11 -11 -10 -10 -10 -12 -13 -11 -14 -12 -13 -13 -13 -11 -7 -7 -7 -7 -6 -7 -9 -12 -10 -7 -4
-9 -10 -10 -10 -11 -11 -11 -13 -21 -14 -12 -12 -11 -10 -11 -11 -12 -14 -14 -12 -12 -14 -12 -14 -14 -11 -12 -11 -8 -8 -8 -9 -10 -11 -14 -7 -4 -5
-9 -9 -9 -10 -10 -13 -14 -22 -26 -19 -13 -13 -12 -13 -13 -14 -14 -13 -13 -12 -12 -13 -11 -10 -11 -12 -12 -12 -13 -14 -14 -13 -12 -13 -14 -5 -5 -5
-10 -10 -9 -10 -11 -11 -14 -25 -27 -23 -14 -13 -16 -16 -14 -12 -11 -10 -11 -10 -11 -11 -12 -10 -12 -9 -11 -12 -11 -11 -11 -11 -10 -12 -9 -5 -5 -5
-10 -10 -11 -10 -10 -12 -17 -25 -26 -22 -25 -20 -15 -13 -13 -11 -11 -10 -10 -10 -9 -11 -11 -10 -10 -11 -10 -9 -9 -8 -10 -9 -7 -10 -9 -5 -5 -5
-13 -13 -10 -10 -11 -16 -19 -21 -20 -18 -16 -15 -14 -14 -12 -12 -12 -12 -11 -10 -10 -9 -10 -10 -9 -10 -11 -10 -12 -8 -7 -7 -7 -8 -7 -5 -5 -5
-13 -14 -12 -13 -17 -18 -17 -16 -14 -14 -13 -14 -15 -13 -13 -13 -12 -12 -11 -11 -10 -9 -9 -10 -9 -9 -10 -11 -11 -10 -8 -7 -8 -7 -6 -5 -5 -5
-12 -13 -13 -15 -15 -14 -14 -12 -12 -13 -12 -14 -14 -14 -14 -13 -13 -12 -12 -11 -10 -9 -9 -10 -9 -9 -9 -11 -10 -11 -8 -7 -7 -7 -6 -5 -5 -5
-11 -11 -12 -14 -11 -11 -11 -11 -12 -13 -12 -12 -13 -15 -14 -14 -13 -13 -12 -12 -11 -11 -10 -8 -9 -9 -11 -11 -10 -10 -8 -7 -7 -7 -6 -6 -5 -5
-10 -10 -12 -13 -10 -12 -12 -12 -12 -13 -12 -12 -14 -14 -13 -14 -14 -13 -12 -12 -11 -11 -11 -10 -9 -8 -9 -9 -9 -9 -8 -8 -7 -7 -7 -7 -7 -7
-10 -11 -12 -12 -11 -11 -12 -12 -12 -13 -12 -13 -14 -14 -14 -14 -15 -13 -12 -13 -12 -12 -11 -11 -9 -10 -8 -10 -10 -10 -8 -8 -8 -8 -8 -7 -7 -8
-11 -11 -12 -11 -11 -11 -12 -11 -12 -12 -13 -13 -13 -14 -14 -14 -14 -14 -14 -13 -14 -13 -11 -11 -10 -11 -9 -9 -8 -11 -9 -10 -8 -8 -10 -9 -7 -6
-11 -11 -11 -11 -12 -11 -12 -11 -11 -12 -13 -13 -14 -14 -13 -14 -14 -14 -15 -13 -14 -12 -12 -12 -12 -12 -10 -9 -9 -10 -11 -7 -7 -7 -8 -8 -9 -9
-10 -11 -11 -11 -10 -10 -11 -12 -12 -12 -13 -14 -14 -14 -13 -14 -14 -14 -14 -15 -14 -13 -14 -14 -13 -12 -10 -9 -9 -9 -10 -10 -9 -8 -9 -8 -9 -9
-11 -11 -10 -11 -10 -9 -10 -10 -11 -12 -12 -13 -13 -13 -14 -14 -14 -14 -14 -14 -15 -14 -15 -15 -12 -11 -10 -9 -9 -9 -10 -10 -10 -10 -10 -10 -9 -7
-9 -10 -10 -10 -11 -11 -10 -10 -11 -11 -12 -12 -13 -14 -14 -15 -14 -14 -14 -14 -15 -16 -20 -14 -12 -11 -10 -10 -10 -9 -10 -11 -10 -10 -10 -10 -9 -9

GFSNE_850_dewp_033.txt.gz
Dewpoint
-3 -4 -4 -3 -3 -3 -3 -4 -4 -5 -6 -9 -9 -10 -10 -10 -11 -11 -12 -12 -12 -13 -11 -12 -13 -10 -9 -8 -7 -7 -6 -7 -6 -5 -4 -3 -3 -4
-8 -7 -6 -4 -3 -4 -5 -5 -6 -8 -9 -10 -10 -11 -11 -12 -12 -12 -12 -13 -14 -14 -14 -13 -11 -9 -9 -9 -8 -7 -7 -7 -7 -6 -4 -5 -4 -5
-8 -5 -5 -4 -5 -5 -6 -7 -8 -9 -10 -11 -12 -13 -14 -13 -13 -13 -13 -13 -13 -13 -12 -13 -13 -11 -10 -10 -10 -11 -10 -9 -7 -6 -7 -7 -9 -10
-6 -5 -5 -5 -7 -8 -9 -10 -11 -11 -11 -14 -17 -16 -14 -14 -14 -14 -14 -13 -12 -11 -11 -12 -12 -10 -10 -11 -11 -10 -10 -8 -9 -9 -9 -12 -16 -15
-6 -6 -7 -8 -8 -9 -11 -11 -11 -13 -16 -14 -15 -16 -15 -15 -14 -14 -13 -14 -12 -13 -12 -12 -12 -13 -14 -13 -12 -11 -9 -9 -9 -8 -9 -12 -15 -17
-9 -7 -8 -9 -10 -11 -11 -12 -13 -14 -14 -14 -16 -14 -13 -14 -12 -11 -11 -12 -14 -15 -15 -15 -13 -12 -13 -13 -12 -12 -12 -8 -9 -11 -11 -13 -14 -16
-10 -10 -10 -10 -11 -11 -12 -12 -12 -12 -12 -15 -14 -12 -13 -12 -11 -11 -12 -14 -16 -16 -16 -16 -14 -16 -15 -15 -14 -9 -10 -9 -10 -10 -9 -11 -12 -14
-13 -15 -10 -10 -11 -11 -11 -11 -11 -12 -17 -20 -12 -12 -11 -11 -12 -13 -14 -15 -15 -17 -13 -14 -13 -14 -13 -14 -12 -9 -6 -7 -7 -6 -8 -8 -11 -14
-11 -13 -10 -9 -10 -11 -11 -11 -15 -19 -26 -19 -12 -11 -11 -12 -13 -14 -13 -11 -12 -13 -11 -11 -12 -12 -13 -12 -12 -12 -9 -8 -10 -11 -11 -12 -14 -15
-9 -12 -9 -9 -10 -11 -12 -13 -16 -21 -25 -18 -12 -12 -14 -14 -12 -11 -11 -10 -11 -14 -11 -10 -12 -11 -12 -11 -12 -12 -11 -11 -11 -11 -12 -12 -16 -10
-9 -12 -11 -10 -10 -12 -12 -13 -18 -21 -22 -22 -18 -15 -14 -13 -11 -11 -11 -11 -11 -12 -12 -9 -11 -12 -12 -14 -10 -9 -9 -11 -10 -9 -9 -10 -12 -6
-10 -11 -12 -11 -12 -13 -13 -17 -18 -18 -17 -16 -19 -18 -14 -13 -12 -12 -12 -11 -11 -11 -12 -9 -10 -9 -10 -12 -13 -12 -11 -8 -10 -10 -8 -10 -8 -6
-10 -12 -12 -13 -14 -15 -17 -18 -16 -15 -14 -14 -15 -16 -15 -14 -13 -13 -12 -11 -11 -11 -11 -9 -9 -9 -10 -10 -12 -13 -10 -9 -8 -7 -7 -8 -6 -6
-9 -11 -12 -13 -15 -16 -16 -15 -14 -13 -13 -14 -13 -14 -15 -15 -14 -13 -13 -12 -11 -11 -9 -9 -8 -9 -9 -9 -9 -12 -13 -9 -7 -7 -7 -6 -6 -5
-9 -9 -11 -13 -14 -16 -13 -12 -12 -12 -13 -13 -12 -13 -14 -14 -14 -15 -14 -12 -13 -12 -10 -9 -8 -10 -10 -9 -9 -10 -10 -10 -7 -7 -6 -6 -6 -5
-10 -9 -10 -11 -12 -13 -12 -12 -11 -12 -13 -12 -13 -13 -14 -14 -14 -15 -13 -13 -13 -14 -12 -10 -10 -9 -8 -9 -9 -10 -9 -8 -8 -7 -7 -6 -6 -5
-9 -10 -10 -10 -11 -13 -11 -12 -12 -12 -12 -13 -12 -13 -14 -14 -14 -15 -14 -13 -13 -13 -12 -11 -11 -12 -9 -9 -9 -9 -9 -9 -10 -7 -7 -7 -7 -6
-9 -9 -9 -10 -11 -12 -11 -11 -12 -11 -12 -12 -12 -14 -14 -14 -14 -14 -15 -14 -14 -14 -12 -11 -11 -13 -10 -9 -10 -10 -9 -9 -8 -8 -7 -7 -8 -7
-9 -10 -11 -12 -12 -12 -10 -11 -12 -11 -12 -12 -12 -15 -14 -14 -14 -14 -14 -15 -15 -13 -13 -13 -13 -13 -11 -10 -9 -9 -9 -8 -8 -8 -10 -9 -7 -7
-9 -11 -12 -12 -12 -12 -11 -11 -11 -12 -12 -12 -14 -15 -15 -14 -15 -14 -14 -15 -15 -14 -15 -15 -14 -12 -11 -10 -9 -9 -10 -9 -8 -8 -9 -9 -9 -8
-10 -10 -11 -12 -12 -11 -11 -10 -10 -10 -12 -12 -14 -14 -14 -14 -15 -14 -14 -14 -15 -15 -17 -16 -12 -11 -10 -9 -8 -9 -9 -10 -8 -8 -8 -8 -9 -9
-10 -10 -11 -12 -12 -11 -11 -10 -9 -10 -10 -11 -14 -14 -13 -14 -14 -15 -15 -14 -15 -15 -19 -15 -12 -11 -10 -10 -9 -9 -9 -9 -9 -8 -8 -8 -8 -8
-9 -9 -9 -9 -10 -10 -10 -11 -11 -10 -10 -12 -14 -13 -13 -16 -15 -15 -14 -14 -14 -15 -20 -20 -13 -11 -11 -10 -10 -9 -10 -10 -10 -9 -9 -9 -9 -9

GFSNE_850_dewp_036.txt.gz
Dewpoint
-6 -6 -8 -9 -8 -3 -3 -4 -4 -4 -6 -7 -8 -9 -10 -11 -12 -13 -13 -13 -14 -14 -14 -15 -10 -9 -8 -8 -7 -7 -7 -6 -6 -6 -6 -6 -5 -3
-6 -8 -9 -8 -6 -5 -4 -5 -5 -6 -6 -9 -10 -11 -13 -17 -20 -19 -18 -16 -16 -14 -14 -13 -13 -9 -10 -9 -8 -8 -8 -7 -7 -7 -6 -6 -6 -5
-6 -8 -7 -5 -6 -6 -7 -7 -8 -9 -11 -12 -13 -16 -19 -20 -19 -17 -15 -15 -14 -14 -13 -13 -12 -11 -13 -10 -10 -10 -10 -9 -8 -8 -7 -6 -6 -5
-6 -7 -8 -6 -6 -8 -8 -9 -11 -11 -11 -13 -17 -18 -20 -18 -16 -15 -15 -15 -15 -15 -14 -14 -14 -13 -13 -12 -12 -13 -15 -15 -13 -10 -11 -7 -6 -7
-6 -7 -9 -7 -8 -8 -9 -11 -11 -12 -13 -15 -15 -17 -21 -17 -16 -15 -14 -14 -14 -15 -16 -17 -16 -16 -14 -13 -14 -14 -14 -12 -14 -12 -9 -9 -9 -9
-6 -7 -9 -8 -9 -10 -10 -11 -11 -12 -13 -13 -15 -22 -21 -16 -14 -13 -13 -14 -16 -17 -17 -15 -14 -14 -15 -16 -15 -15 -14 -15 -14 -14 -9 -10 -10 -13
-5 -7 -11 -15 -13 -10 -10 -11 -11 -12 -11 -15 -20 -24 -18 -14 -12 -12 -13 -14 -16 -16 -13 -13 -13 -13 -14 -15 -16 -17 -15 -11 -9 -8 -8 -9 -10 -12
-5 -7 -9 -13 -13 -12 -11 -11 -11 -11 -14 -18 -24 -23 -15 -12 -12 -12 -13 -13 -12 -13 -10 -14 -13 -13 -13 -14 -12 -13 -13 -9 -7 -8 -9 -9 -9 -10
-6 -7 -8 -10 -13 -11 -11 -11 -10 -12 -15 -21 -24 -20 -16 -14 -15 -13 -12 -12 -11 -12 -12 -12 -14 -12 -12 -13 -12 -10 -12 -12 -10 -10 -11 -11 -11 -13
-5 -6 -7 -10 -12 -11 -11 -11 -12 -14 -18 -20 -21 -20 -17 -14 -13 -12 -11 -11 -12 -14 -13 -12 -13 -12 -11 -13 -13 -10 -10 -9 -10 -12 -13 -12 -12 -15
-6 -6 -8 -11 -12 -12 -11 -12 -15 -19 -19 -17 -16 -17 -17 -14 -12 -12 -12 -12 -13 -14 -14 -11 -12 -10 -11 -12 -14 -12 -12 -11 -10 -9 -13 -11 -11 -11
-7 -7 -10 -12 -12 -12 -13 -14 -18 -19 -17 -16 -16 -15 -17 -17 -15 -13 -12 -12 -12 -12 -13 -11 -10 -9 -9 -11 -12 -13 -12 -10 -12 -9 -10 -10 -8 -9
-7 -8 -10 -11 -12 -13 -13 -17 -18 -17 -15 -15 -14 -14 -14 -14 -15 -15 -14 -13 -12 -12 -12 -10 -10 -9 -9 -10 -11 -12 -12 -12 -11 -8 -8 -8 -7 -8
-8 -9 -8 -10 -12 -13 -15 -16 -15 -14 -14 -13 -13 -14 -13 -13 -15 -15 -16 -14 -13 -12 -12 -10 -9 -9 -9 -9 -11 -12 -12 -12 -10 -8 -8 -7 -8 -7
-8 -7 -7 -9 -10 -13 -12 -14 -13 -13 -12 -12 -13 -13 -13 -13 -15 -15 -16 -13 -13 -14 -13 -11 -9 -9 -10 -9 -9 -11 -11 -12 -9 -8 -7 -7 -7 -6
-7 -7 -8 -9 -9 -11 -10 -12 -12 -12 -12 -12 -12 -12 -12 -14 -15 -15 -15 -15 -15 -15 -14 -11 -10 -11 -11 -9 -8 -9 -10 -9 -10 -8 -7 -7 -6 -6
-7 -8 -8 -9 -10 -10 -10 -11 -12 -11 -12 -12 -11 -12 -12 -15 -15 -15 -14 -15 -15 -14 -13 -13 -12 -12 -9 -8 -9 -9 -10 -9 -8 -8 -7 -7 -6 -6
-7 -8 -9 -9 -10 -10 -10 -11 -12 -11 -12 -12 -11 -11 -12 -15 -15 -15 -14 -15 -15 -15 -13 -14 -14 -14 -11 -10 -9 -10 -10 -9 -10 -9 -8 -7 -7 -6
-8 -8 -9 -9 -9 -10 -12 -12 -12 -12 -11 -12 -11 -11 -13 -16 -16 -15 -15 -14 -16 -16 -16 -17 -15 -13 -12 -11 -9 -9 -9 -9 -10 -8 -10 -8 -7 -8
-8 -8 -9 -9 -10 -11 -12 -12 -12 -12 -11 -11 -11 -11 -13 -15 -16 -15 -15 -14 -15 -16 -19 -18 -13 -12 -11 -10 -10 -9 -9 -9 -9 -8 -9 -9 -8 -7
-7 -8 -8 -9 -10 -11 -12 -12 -12 -12 -11 -10 -10 -11 -12 -14 -15 -15 -15 -15 -15 -15 -18 -17 -13 -11 -10 -9 -9 -9 -9 -9 -8 -8 -8 -8 -9 -10
-8 -8 -8 -9 -10 -10 -12 -11 -11 -11 -10 -10 -10 -11 -11 -14 -14 -15 -15 -15 -15 -15 -16 -21 -14 -11 -10 -10 -9 -9 -9 -9 -9 -8 -8 -9 -9 -8
-8 -8 -8 -9 -9 -9 -9 -11 -11 -11 -11 -11 -10 -10 -12 -15 -14 -16 -16 -15 -15 -15 -16 -24 -16 -12 -11 -11 -10 -9 -10 -10 -10 -9 -9 -9 -9 -9

GFSNE_850_dewp_042.txt.gz
Dewpoint
-6 -8 -7 -6 -7 -8 -10 -9 -7 -5 -6 -8 -8 -9 -11 -13 -16 -19 -22 -23 -23 -21 -20 -19 -18 -11 -9 -9 -8 -8 -7 -8 -7 -6 -6 -6 -6 -5
-7 -7 -6 -6 -7 -8 -9 -9 -7 -8 -9 -10 -10 -11 -12 -14 -16 -19 -22 -23 -20 -19 -17 -17 -16 -12 -10 -10 -9 -9 -9 -8 -8 -7 -7 -7 -6 -6
-8 -7 -6 -6 -6 -7 -8 -10 -9 -8 -9 -10 -11 -11 -13 -15 -18 -21 -22 -22 -19 -17 -16 -16 -17 -16 -15 -16 -15 -11 -10 -9 -9 -8 -8 -8 -8 -7
-8 -6 -6 -5 -6 -7 -8 -10 -9 -8 -9 -10 -11 -12 -14 -16 -20 -22 -22 -20 -18 -17 -18 -22 -20 -17 -15 -15 -17 -17 -16 -15 -9 -9 -9 -9 -8 -8
-6 -5 -5 -5 -5 -6 -8 -10 -12 -11 -11 -11 -12 -13 -15 -18 -21 -22 -22 -20 -20 -20 -18 -17 -14 -14 -14 -13 -14 -14 -15 -16 -16 -16 -15 -15 -15 -12
-6 -6 -5 -5 -5 -6 -9 -10 -12 -12 -11 -12 -12 -13 -15 -19 -21 -21 -21 -20 -19 -17 -15 -13 -14 -14 -15 -14 -13 -14 -14 -14 -15 -17 -17 -17 -17 -17
-6 -6 -5 -5 -5 -6 -7 -9 -10 -11 -11 -11 -12 -13 -17 -20 -21 -19 -18 -19 -18 -16 -15 -14 -16 -17 -17 -16 -13 -12 -13 -14 -14 -14 -16 -17 -17 -11
-6 -5 -5 -5 -5 -5 -7 -7 -9 -11 -10 -11 -11 -13 -18 -20 -19 -18 -18 -15 -12 -14 -14 -15 -15 -17 -16 -13 -12 -13 -13 -14 -13 -11 -11 -12 -10 -8
-6 -5 -5 -5 -5 -5 -6 -7 -10 -10 -10 -10 -12 -15 -19 -18 -17 -17 -16 -14 -13 -16 -14 -15 -16 -16 -15 -13 -13 -13 -13 -15 -11 -10 -10 -10 -10 -12
-6 -5 -5 -5 -5 -6 -7 -9 -11 -10 -10 -10 -12 -17 -18 -17 -16 -16 -15 -15 -16 -17 -17 -14 -15 -15 -15 -14 -14 -13 -13 -14 -11 -12 -14 -13 -12 -13
-6 -5 -5 -5 -6 -6 -7 -10 -12 -11 -10 -11 -14 -18 -17 -16 -14 -14 -15 -15 -15 -15 -17 -12 -14 -15 -16 -15 -12 -12 -11 -12 -12 -13 -13 -14 -13 -13
-8 -7 -7 -6 -6 -6 -7 -9 -11 -13 -12 -12 -17 -17 -16 -16 -15 -15 -14 -15 -14 -15 -15 -14 -13 -12 -13 -15 -13 -13 -11 -10 -11 -12 -13 -14 -13 -9
-8 -8 -6 -6 -6 -7 -7 -8 -9 -11 -13 -14 -16 -15 -15 -15 -15 -15 -15 -15 -15 -15 -16 -13 -13 -13 -12 -12 -14 -14 -12 -10 -10 -12 -12 -10 -9 -8
-9 -8 -8 -7 -7 -7 -7 -8 -8 -10 -13 -13 -14 -14 -14 -14 -14 -13 -14 -16 -16 -15 -15 -15 -14 -13 -12 -12 -12 -13 -12 -11 -10 -10 -9 -10 -8 -7
-11 -8 -7 -7 -7 -7 -7 -8 -8 -9 -12 -11 -12 -13 -13 -13 -13 -12 -13 -17 -17 -16 -16 -16 -12 -12 -12 -12 -12 -12 -10 -11 -10 -9 -9 -8 -7 -7
-10 -9 -8 -7 -7 -7 -7 -8 -8 -9 -9 -10 -11 -12 -12 -13 -12 -12 -13 -18 -17 -17 -17 -17 -15 -13 -13 -12 -12 -11 -10 -10 -10 -10 -9 -8 -8 -7
-7 -8 -8 -8 -7 -8 -7 -8 -8 -8 -9 -10 -10 -11 -11 -12 -12 -12 -14 -18 -17 -16 -17 -17 -21 -20 -17 -14 -12 -10 -10 -10 -9 -9 -9 -8 -8 -7
-7 -8 -8 -9 -8 -8 -8 -8 -8 -8 -9 -10 -10 -11 -11 -12 -12 -12 -14 -16 -17 -17 -16 -17 -21 -15 -14 -12 -10 -10 -10 -10 -10 -9 -8 -8 -7 -7
-7 -7 -8 -9 -9 -9 -8 -8 -8 -8 -9 -10 -10 -11 -11 -12 -12 -12 -13 -15 -18 -17 -16 -17 -18 -13 -12 -12 -11 -10 -10 -10 -9 -8 -8 -8 -8 -8
-7 -7 -7 -7 -9 -9 -9 -8 -8 -8 -9 -11 -12 -12 -11 -12 -12 -12 -12 -14 -17 -17 -17 -17 -21 -13 -12 -11 -11 -10 -10 -9 -9 -9 -9 -9 -9 -8
-8 -7 -8 -8 -7 -10 -9 -8 -8 -9 -9 -10 -12 -12 -11 -11 -12 -12 -12 -13 -17 -17 -17 -17 -21 -14 -11 -11 -11 -10 -10 -10 -9 -9 -9 -10 -10 -10
-8 -8 -8 -8 -9 -9 -8 -8 -9 -9 -9 -11 -12 -12 -11 -11 -12 -11 -12 -13 -17 -17 -17 -17 -20 -18 -13 -11 -11 -10 -10 -10 -10 -10 -9 -10 -9 -9
-8 -8 -8 -8 -8 -9 -8 -9 -9 -9 -9 -11 -12 -12 -12 -11 -11 -11 -11 -13 -16 -18 -17 -17 -18 -20 -15 -13 -11 -11 -10 -10 -10 -10 -10 -10 -10 -10

GFSNE_850_dewp_045.txt.gz
Dewpoint
-9 -7 -8 -8 -6 -7 -8 -9 -5 -6 -8 -8 -7 -8 -10 -12 -13 -16 -19 -22 -25 -26 -26 -24 -22 -20 -19 -10 -9 -8 -8 -8 -7 -7 -6 -6 -5 -5
-7 -6 -8 -7 -6 -6 -6 -8 -5 -6 -7 -9 -8 -8 -11 -11 -13 -16 -20 -24 -25 -24 -23 -21 -19 -18 -18 -11 -10 -10 -9 -9 -8 -8 -8 -7 -7 -6
-5 -7 -8 -7 -6 -6 -6 -7 -5 -5 -6 -8 -8 -9 -12 -12 -13 -17 -22 -23 -23 -22 -21 -20 -20 -20 -17 -21 -20 -18 -15 -10 -9 -9 -9 -8 -7 -7
-6 -9 -7 -6 -5 -5 -5 -6 -6 -6 -7 -9 -10 -10 -11 -13 -16 -20 -22 -23 -22 -20 -20 -21 -20 -19 -18 -17 -15 -15 -15 -11 -10 -10 -9 -8 -8 -8
-6 -7 -7 -6 -5 -5 -5 -6 -7 -9 -10 -10 -10 -10 -11 -11 -14 -16 -19 -20 -16 -20 -21 -19 -15 -15 -14 -14 -14 -14 -15 -15 -14 -13 -11 -10 -10 -9
-5 -6 -6 -6 -5 -5 -6 -6 -7 -8 -9 -10 -10 -11 -11 -11 -14 -16 -14 -14 -14 -19 -16 -13 -15 -16 -16 -16 -15 -16 -15 -13 -13 -15 -14 -12 -11 -16
-7 -7 -7 -6 -5 -5 -5 -5 -6 -8 -9 -9 -10 -11 -11 -12 -14 -15 -13 -14 -13 -12 -11 -12 -12 -11 -11 -14 -17 -15 -13 -12 -13 -14 -13 -11 -10 -13
-8 -8 -7 -6 -6 -4 -5 -5 -6 -7 -7 -9 -10 -10 -11 -11 -14 -13 -12 -12 -13 -13 -12 -12 -12 -11 -11 -14 -15 -13 -13 -13 -13 -14 -14 -11 -12 -12
-12 -10 -7 -6 -6 -5 -5 -5 -6 -7 -8 -9 -9 -10 -10 -12 -14 -12 -12 -12 -12 -13 -12 -12 -12 -11 -10 -14 -14 -13 -13 -12 -13 -13 -13 -11 -11 -11
-13 -10 -7 -6 -6 -6 -6 -5 -6 -8 -10 -12 -10 -10 -11 -15 -16 -12 -11 -12 -12 -13 -12 -12 -12 -11 -11 -16 -16 -13 -13 -12 -11 -12 -11 -11 -13 -14
-11 -10 -9 -8 -7 -7 -6 -6 -6 -8 -10 -11 -11 -10 -12 -17 -17 -12 -11 -12 -12 -13 -13 -11 -12 -12 -11 -11 -13 -13 -15 -13 -11 -10 -11 -12 -12 -14
-10 -9 -9 -9 -8 -7 -7 -6 -6 -8 -9 -10 -12 -12 -14 -17 -16 -15 -12 -12 -12 -12 -13 -12 -12 -12 -12 -12 -10 -10 -13 -15 -13 -12 -10 -12 -12 -13
-9 -9 -10 -10 -8 -8 -6 -6 -6 -8 -8 -9 -11 -12 -15 -14 -12 -11 -12 -12 -12 -13 -13 -13 -12 -12 -12 -12 -12 -11 -10 -10 -10 -10 -10 -12 -11 -10
-9 -9 -11 -11 -9 -8 -7 -7 -7 -7 -8 -8 -10 -13 -13 -13 -11 -11 -12 -13 -12 -13 -13 -13 -13 -13 -12 -12 -12 -11 -10 -10 -9 -9 -10 -11 -11 -9
-6 -7 -8 -10 -9 -7 -8 -8 -7 -7 -8 -8 -9 -11 -11 -11 -12 -13 -13 -13 -14 -19 -17 -15 -14 -13 -13 -12 -12 -11 -10 -10 -9 -9 -9 -10 -8 -9
-7 -6 -6 -7 -8 -8 -8 -7 -7 -7 -7 -8 -9 -9 -10 -11 -12 -13 -13 -12 -12 -16 -18 -17 -16 -19 -14 -13 -13 -11 -10 -10 -10 -10 -9 -9 -8 -8
-8 -9 -8 -7 -7 -8 -9 -8 -7 -8 -8 -8 -9 -9 -10 -10 -12 -12 -13 -12 -12 -12 -13 -13 -16 -21 -14 -14 -12 -11 -10 -10 -10 -10 -9 -9 -8 -8
-10 -8 -8 -7 -7 -7 -9 -9 -9 -8 -8 -8 -9 -9 -9 -10 -11 -11 -12 -12 -12 -12 -13 -13 -13 -15 -11 -11 -11 -10 -10 -10 -9 -9 -8 -8 -8 -8
-11 -12 -9 -7 -8 -7 -8 -8 -9 -8 -8 -8 -9 -9 -9 -10 -11 -11 -11 -12 -12 -12 -13 -13 -13 -13 -12 -11 -11 -10 -10 -10 -9 -9 -8 -8 -8 -8
-9 -9 -9 -8 -7 -7 -8 -8 -9 -9 -8 -8 -8 -9 -10 -10 -11 -11 -11 -12 -12 -13 -14 -13 -13 -14 -12 -12 -12 -10 -10 -10 -10 -10 -10 -10 -8 -9
-11 -10 -9 -8 -7 -8 -8 -8 -9 -8 -8 -8 -9 -9 -11 -12 -11 -11 -11 -12 -13 -14 -14 -13 -15 -21 -14 -11 -11 -10 -10 -10 -10 -10 -10 -10 -10 -8
-13 -11 -10 -9 -8 -8 -8 -8 -8 -8 -9 -9 -9 -9 -11 -12 -11 -12 -12 -12 -12 -13 -15 -17 -17 -19 -16 -12 -11 -11 -10 -10 -10 -11 -10 -10 -10 -9
-14 -13 -13 -11 -10 -9 -9 -9 -9 -9 -9 -9 -9 -9 -11 -12 -11 -11 -11 -11 -12 -14 -17 -18 -17 -18 -19 -16 -13 -11 -11 -10 -10 -10 -10 -10 -10 -10